User: anonymous   Login
Location: Unspecified
(0.0000°N, 0.0000°E)
Time: 15:45:39
(UTC+00:00)
Language:

Apple - Orbit

View from above orbital plane
View from above orbital plane
View from above satellite
View from above satellite

Ground track
Ground track

The orbit data is extracted from the following two-line orbital elements,

1 12545U 81057B   18197.78998029 -.00000382  00000-0  00000+0 0  9999
2 12545  13.0524 326.2548 0023820 149.2676 226.8742  1.00040479 93440
Epoch (UTC): 16 July 2018 18:57:34
Eccentricity: 0.0023820
inclination: 13.0524°
perigee height: 35750 km
apogee height: 35952 km
right ascension of ascending node: 326.2548°
argument of perigee: 149.2676°
revolutions per day: 1.00040479
mean anomaly at epoch: 226.8742°
orbit number at epoch: 9344

The dashed part of the orbit path shows where the satellite is in the earth's shadow,  

DLR